Change the Weather History Date:

Wednesday, January 1, 2014

  Actual Average (KBLU) Record (KBLU)
Temperature  
Mean Temperature 55 °F -  
Max Temperature 62 °F 44 °F 62 °F (2012)
Min Temperature 48 °F 30 °F 11 °F (1965)
Degree Days  
Heating Degree Days 10    
Growing Degree Days 5 (Base 50)    
Moisture  
Dew Point 27 °F    
Average Humidity 35    
Maximum Humidity 50    
Minimum Humidity 24    
Precipitation  
Precipitation 0.00 in - - ()
Sea Level Pressure  
Sea Level Pressure 30.19 in    
Wind  
Wind Speed 1 mph (WNW)    
Max Wind Speed 8 mph    
Max Gust Speed -    
Visibility 10 miles    
Events      
Averages and records for this station are not official NWS values.
T = Trace of Precipitation, MM = Missing Value Source: NWS Daily Summary

Daily Weather History Graph

Daily Weather History Graph

Search for Another Location

Airport or City:

Trip Planner

Search our weather history database for the weather conditions in past years. The results will help you decide how hot, cold, wet, or windy it might be!

Date:

Astronomy

Jan. 01, 2014 Rise Set
Actual Time 7:23 AM PST 4:51 PM PST
Civil Twilight 6:53 AM PST 5:21 PM PST
Nautical Twilight 6:20 AM PST 5:55 PM PST
Astronomical Twilight 5:47 AM PST 6:28 PM PST
Moon 7:19 AM PST (1/1) 5:42 PM PST (1/1)
Length of Visible Light 10h 28m
Length of Day
9h 28m
New Moon, 0% of the Moon is Illuminated
Jan 1
New Moon
Jan 7
First Quarter
Jan 15
Full
Jan 23
Last Quarter
Jan 30
New

Hourly Weather History & Observations

Time (PST) Temp. Dew Point Humidity Pressure Visibility Wind Dir Wind Speed Gust Speed Precip Events Conditions
12:15 AM 53.6 °F 21.2 °F 28% 30.19 in 10.0 mi Calm Calm - N/A   Clear
12:35 AM 53.6 °F 21.2 °F 28% 30.19 in 10.0 mi Calm Calm - N/A   Clear
12:55 AM 53.6 °F 19.4 °F 26% 30.19 in 10.0 mi Calm Calm - N/A   Clear
1:15 AM 53.6 °F 19.4 °F 26% 30.19 in 10.0 mi Calm Calm - N/A   Clear
1:35 AM 53.6 °F 19.4 °F 26% 30.19 in 10.0 mi Calm Calm - N/A   Clear
1:55 AM 53.6 °F 17.6 °F 24% 30.19 in 10.0 mi Calm Calm - N/A   Clear
2:15 AM 53.6 °F 17.6 °F 24% 30.19 in 10.0 mi Calm Calm - N/A   Clear
2:35 AM 51.8 °F 19.4 °F 28% 30.20 in 10.0 mi Calm Calm - N/A   Clear
2:55 AM 53.6 °F 19.4 °F 26% 30.20 in 10.0 mi Calm Calm - N/A   Clear
3:15 AM 50.0 °F 19.4 °F 30% 30.20 in 10.0 mi Calm Calm - N/A   Clear
3:35 AM 48.2 °F 19.4 °F 32% 30.20 in 10.0 mi Calm Calm - N/A   Clear
3:55 AM 48.2 °F 19.4 °F 32% 30.20 in 10.0 mi Calm Calm - N/A   Clear
4:15 AM 50.0 °F 19.4 °F 30% 30.19 in 10.0 mi Calm Calm - N/A   Clear
4:35 AM 53.6 °F 19.4 °F 26% 30.19 in 10.0 mi Calm Calm - N/A   Clear
4:55 AM 55.4 °F 19.4 °F 25% 30.19 in 10.0 mi Calm Calm - N/A   Clear
5:15 AM 55.4 °F 19.4 °F 25% 30.19 in 10.0 mi Calm Calm - N/A   Clear
5:35 AM 55.4 °F 19.4 °F 25% 30.19 in 10.0 mi Calm Calm - N/A   Clear
5:55 AM 53.6 °F 21.2 °F 28% 30.19 in 10.0 mi Calm Calm - N/A   Clear
6:10 AM 53.6 °F 23.0 °F 30% 30.19 in 10.0 mi Calm Calm - N/A   Clear
10:55 AM 57.2 °F 28.4 °F 33% 30.22 in 10.0 mi Calm Calm - N/A   Clear
11:15 AM 59.0 °F 28.4 °F 31% 30.21 in 10.0 mi Calm Calm - N/A   Clear
11:35 AM 59.0 °F 28.4 °F 31% 30.21 in 10.0 mi Calm Calm - N/A   Clear
11:55 AM 59.0 °F 28.4 °F 31% 30.20 in 10.0 mi WNW 3.5 mph - N/A   Clear
12:15 PM 59.0 °F 28.4 °F 31% 30.19 in 10.0 mi WNW 3.5 mph - N/A   Clear
12:35 PM 60.8 °F 28.4 °F 29% 30.18 in 10.0 mi WNW 3.5 mph - N/A   Clear
12:55 PM 60.8 °F 28.4 °F 29% 30.18 in 10.0 mi WNW 3.5 mph - N/A   Clear
1:15 PM 62.6 °F 28.4 °F 27% 30.18 in 10.0 mi Calm Calm - N/A   Clear
1:35 PM 62.6 °F 28.4 °F 27% 30.17 in 10.0 mi WNW 5.8 mph - N/A   Clear
1:55 PM 62.6 °F 28.4 °F 27% 30.17 in 10.0 mi West 3.5 mph - N/A   Clear
2:15 PM 62.6 °F 28.4 °F 27% 30.16 in 10.0 mi Calm Calm - N/A   Clear
2:35 PM 62.6 °F 28.4 °F 27% 30.17 in 10.0 mi West 4.6 mph - N/A   Clear
2:55 PM 62.6 °F 30.2 °F 30% 30.17 in 10.0 mi West 8.1 mph - N/A   Clear
3:15 PM 59.0 °F 32.0 °F 36% 30.17 in 10.0 mi WNW 4.6 mph - N/A   Clear
3:35 PM 59.0 °F 32.0 °F 36% 30.17 in 10.0 mi Calm Calm - N/A   Clear
3:55 PM 59.0 °F 32.0 °F 36% 30.16 in 10.0 mi Calm Calm - N/A   Clear
4:15 PM 55.4 °F 32.0 °F 41% 30.17 in 10.0 mi Calm Calm - N/A   Clear
4:35 PM 55.4 °F 32.0 °F 41% 30.17 in 10.0 mi Calm Calm - N/A   Clear
4:55 PM 53.6 °F 32.0 °F 44% 30.17 in 10.0 mi Calm Calm - N/A   Clear
5:15 PM 53.6 °F 32.0 °F 44% 30.17 in 10.0 mi Calm Calm - N/A   Clear
5:35 PM 53.6 °F 32.0 °F 44% 30.17 in 10.0 mi Calm Calm - N/A   Clear
5:55 PM 53.6 °F 32.0 °F 44% 30.18 in 10.0 mi Calm Calm - N/A   Clear
6:15 PM 53.6 °F 32.0 °F 44% 30.19 in 10.0 mi Calm Calm - N/A   Clear
6:35 PM 50.0 °F 32.0 °F 50% 30.19 in 10.0 mi Calm Calm - N/A   Clear
6:55 PM 50.0 °F 32.0 °F 50% 30.19 in 10.0 mi Calm Calm - N/A   Clear
7:15 PM 50.0 °F 32.0 °F 50% 30.19 in 10.0 mi Calm Calm - N/A   Clear
7:35 PM 51.8 °F 32.0 °F 47% 30.19 in 10.0 mi Calm Calm - N/A   Clear
7:55 PM 51.8 °F 30.2 °F 44% 30.19 in 10.0 mi Calm Calm - N/A   Clear
8:15 PM 51.8 °F 32.0 °F 47% 30.19 in 10.0 mi Calm Calm - N/A   Clear
8:35 PM 51.8 °F 30.2 °F 44% 30.19 in 10.0 mi Calm Calm - N/A   Clear
8:55 PM 53.6 °F 30.2 °F 41% 30.19 in 10.0 mi Calm Calm - N/A   Clear
9:15 PM 51.8 °F 30.2 °F 44% 30.20 in 10.0 mi Calm Calm - N/A   Clear
9:35 PM 51.8 °F 30.2 °F 44% 30.20 in 10.0 mi Calm Calm - N/A   Clear
9:55 PM 50.0 °F 30.2 °F 47% 30.21 in 10.0 mi Calm Calm - N/A   Clear
10:15 PM 50.0 °F 30.2 °F 47% 30.21 in 10.0 mi Calm Calm - N/A   Clear
10:35 PM 53.6 °F 32.0 °F 44% 30.21 in 10.0 mi Calm Calm - N/A   Clear
10:55 PM 53.6 °F 30.2 °F 41% 30.21 in 10.0 mi Calm Calm - N/A   Clear
11:15 PM 53.6 °F 30.2 °F 41% 30.21 in 10.0 mi ESE 5.8 mph - N/A   Clear
11:35 PM 55.4 °F 30.2 °F 38% 30.21 in 10.0 mi ESE 3.5 mph - N/A   Clear
11:55 PM 55.4 °F 30.2 °F 38% 30.21 in 10.0 mi ESE 6.9 mph - N/A   Clear